Back to catalog

STARLINK-37963

AliveCommunicationsSSO
NORAD 69709·PAYLOAD·🇺🇸 United States

Launched Jun 28, 2026 from Vandenberg Space Force Base

Loading…

Next Passes (next 24 hours)

TLE

FreshSource: CelesTrak SupGP

Epoch: Sep 14, 2026, 15:52 UTC

1 69709C 26147F   26257.66159722 -.00030778  00000+0 -95516-3 0  2573
2 69709  97.2836 294.0614 0001188 108.2360 346.6940 15.33464299    11

Track STARLINK-37963 in real time with AllMySat

Download on the App Store